Gunnison, CO

3:39 PM MST on December 06, 2016 (GMT -0700)
Gunnison County

Weather History for KGUC - October, 2012

Change the Weather History Date:

Sunday, October 28, 2012

  Actual Average Record
Temperature  
Mean Temperature 38 °F -  
Max Temperature 57 °F 49 °F 66 °F (2016)
Min Temperature 19 °F 21 °F 10 °F (1997)
Degree Days  
Heating Degree Days 27    
Moisture  
Dew Point 16 °F    
Average Humidity 44    
Maximum Humidity 74    
Minimum Humidity 26    
Precipitation  
Precipitation 0.00 in - - ()
Sea Level Pressure  
Sea Level Pressure 30.28 in    
Wind  
Wind Speed 4 mph (West)    
Max Wind Speed 18 mph    
Max Gust Speed 31 mph    
Visibility 10 miles    
Events      
Averages and records for this station are not official NWS values.
T = Trace of Precipitation, MM = Missing Value Source: NWS Daily Summary

Daily Weather History Graph

Daily Weather History Graph

Search for Another Location

Airport or City:

Trip Planner

Search our weather history database for the weather conditions in past years. The results will help you decide how hot, cold, wet, or windy it might be!

Date:

Astronomy

Oct. 28, 2012 Rise Set
Actual Time 7:30 AM MDT 6:11 PM MDT
Civil Twilight 7:03 AM MDT 6:39 PM MDT
Nautical Twilight 6:32 AM MDT 7:10 PM MDT
Astronomical Twilight 6:01 AM MDT 7:40 PM MDT
Moon 5:31 PM MDT (10/28) 6:26 AM MDT (10/28)
Length of Visible Light 11h 35m
Length of Day
10h 41m
Waxing Gibbous, 99% of the Moon is Illuminated
Oct 28
Waxing Gibbous
Oct 29
Full
Nov 6
Last Quarter
Nov 13
New
Nov 20
First Quarter

Hourly Weather History & Observations

Time (MDT) Temp. Windchill Dew Point Humidity Pressure Visibility Wind Dir Wind Speed Gust Speed Precip Events Conditions
12:15 AM 24.8 °F 17.9 °F 8.6 °F 50% 30.29 in 10.0 mi North 5.8 mph - N/A   Partly Cloudy
12:35 AM 24.8 °F 20.5 °F 6.8 °F 46% 30.29 in 10.0 mi NNE 3.5 mph - N/A   Clear
12:55 AM 24.8 °F - 8.6 °F 50% 30.30 in 10.0 mi Calm Calm - N/A   Partly Cloudy
1:15 AM 24.8 °F - 8.6 °F 50% 30.30 in 10.0 mi Calm Calm - N/A   Mostly Cloudy
1:35 AM 26.6 °F 22.6 °F 10.4 °F 51% 30.30 in 10.0 mi NNW 3.5 mph - N/A   Overcast
1:55 AM 26.6 °F - 10.4 °F 51% 30.29 in 10.0 mi Calm Calm - N/A   Overcast
2:15 AM 26.6 °F - 10.4 °F 51% 30.29 in 10.0 mi Calm Calm - N/A   Overcast
2:35 AM 26.6 °F - 10.4 °F 51% 30.30 in 10.0 mi Calm Calm - N/A   Overcast
2:55 AM 26.6 °F - 10.4 °F 51% 30.30 in 10.0 mi Calm Calm - N/A   Overcast
3:15 AM 26.6 °F - 12.2 °F 55% 30.30 in 10.0 mi Calm Calm - N/A   Overcast
3:35 AM 26.6 °F - 10.4 °F 51% 30.30 in 10.0 mi Calm Calm - N/A   Overcast
3:55 AM 26.6 °F - 10.4 °F 51% 30.29 in 10.0 mi Calm Calm - N/A   Scattered Clouds
4:15 AM 24.8 °F - 10.4 °F 54% 30.29 in 10.0 mi Calm Calm - N/A   Clear
4:35 AM 24.8 °F - 10.4 °F 54% 30.29 in 10.0 mi Calm Calm - N/A   Clear
4:55 AM 24.8 °F - 10.4 °F 54% 30.29 in 10.0 mi Calm Calm - N/A   Clear
5:15 AM 24.8 °F - 10.4 °F 54% 30.30 in 10.0 mi Calm Calm - N/A   Clear
5:35 AM 21.2 °F - 6.8 °F 54% 30.30 in 10.0 mi Calm Calm - N/A   Clear
5:55 AM 21.2 °F - 8.6 °F 58% 30.30 in 10.0 mi Calm Calm - N/A   Clear
6:15 AM 19.4 °F 14.3 °F 6.8 °F 58% 30.30 in 10.0 mi South 3.5 mph - N/A   Clear
6:35 AM 21.2 °F - 10.4 °F 63% 30.31 in 10.0 mi Calm Calm - N/A   Clear
6:55 AM 19.4 °F - 8.6 °F 63% 30.31 in 10.0 mi Calm Calm - N/A   Clear
7:15 AM 19.4 °F - 6.8 °F 58% 30.32 in 10.0 mi Calm Calm - N/A   Clear
7:35 AM 19.4 °F 14.3 °F 6.8 °F 58% 30.32 in 10.0 mi North 3.5 mph - N/A   Clear
7:55 AM 19.4 °F - 8.6 °F 63% 30.33 in 10.0 mi Calm Calm - N/A   Clear
8:15 AM 19.4 °F - 12.2 °F 74% 30.33 in 10.0 mi Calm Calm - N/A   Clear
9:15 AM 24.8 °F - 12.2 °F 59% 30.33 in 10.0 mi Calm Calm - N/A   Clear
9:35 AM 28.4 °F - 14.0 °F 55% 30.33 in 10.0 mi Calm Calm - N/A   Clear
9:55 AM 30.2 °F - 14.0 °F 51% 30.33 in 10.0 mi Calm Calm - N/A   Clear
10:15 AM 33.8 °F 30.8 °F 14.0 °F 44% 30.32 in 10.0 mi East 3.5 mph - N/A   Clear
10:35 AM 35.6 °F - 15.8 °F 44% 30.32 in 10.0 mi Calm Calm - N/A   Clear
10:55 AM 37.4 °F - 17.6 °F 45% 30.31 in 10.0 mi Calm Calm - N/A   Clear
11:15 AM 41.0 °F 39.0 °F 17.6 °F 39% 30.31 in 10.0 mi NNE 3.5 mph - N/A   Clear
11:35 AM 42.8 °F - 15.8 °F 34% 30.30 in 10.0 mi Calm Calm - N/A   Clear
11:55 AM 44.6 °F - 17.6 °F 34% 30.29 in 10.0 mi Calm Calm - N/A   Clear
12:15 PM 48.2 °F - 19.4 °F 32% 30.28 in 10.0 mi WSW 3.5 mph - N/A   Clear
12:35 PM 51.8 °F - 21.2 °F 30% 30.27 in 10.0 mi SW 5.8 mph - N/A   Clear
12:55 PM 53.6 °F - 21.2 °F 28% 30.26 in 10.0 mi SSW 8.1 mph - N/A   Clear
1:15 PM 53.6 °F - 23.0 °F 30% 30.25 in 10.0 mi SSW 9.2 mph 20.7 mph N/A   Clear
1:35 PM 55.4 °F - 23.0 °F 29% 30.23 in 10.0 mi SW 15.0 mph 18.4 mph N/A   Clear
1:55 PM 55.4 °F - 24.8 °F 31% 30.22 in 10.0 mi WSW 12.7 mph 19.6 mph N/A   Clear
2:15 PM 55.4 °F - 24.8 °F 31% 30.21 in 10.0 mi SW 16.1 mph 23.0 mph N/A   Clear
2:35 PM 57.2 °F - 23.0 °F 27% 30.21 in 10.0 mi West 9.2 mph 21.9 mph N/A   Clear
2:55 PM 55.4 °F - 23.0 °F 29% 30.21 in 10.0 mi SW 17.3 mph 26.5 mph N/A   Clear
3:15 PM 55.4 °F - 24.8 °F 31% 30.20 in 10.0 mi SW 16.1 mph 25.3 mph N/A   Clear
3:35 PM 57.2 °F - 24.8 °F 29% 30.20 in 10.0 mi WSW 18.4 mph 26.5 mph N/A   Clear
3:55 PM 55.4 °F - 23.0 °F 29% 30.20 in 10.0 mi WSW 16.1 mph 31.1 mph N/A   Clear
4:15 PM 55.4 °F - 23.0 °F 29% 30.20 in 10.0 mi WSW 18.4 mph 25.3 mph N/A   Clear
4:35 PM 55.4 °F - 21.2 °F 26% 30.21 in 10.0 mi SW 18.4 mph 27.6 mph N/A   Clear
4:55 PM 55.4 °F - 21.2 °F 26% 30.21 in 10.0 mi WSW 12.7 mph 21.9 mph N/A   Clear
5:15 PM 55.4 °F - 21.2 °F 26% 30.21 in 10.0 mi WSW 13.8 mph 24.2 mph N/A   Clear
5:35 PM 53.6 °F - 21.2 °F 28% 30.22 in 10.0 mi WSW 11.5 mph - N/A   Clear
5:55 PM 53.6 °F - 19.4 °F 26% 30.23 in 10.0 mi SW 10.4 mph - N/A   Clear
6:15 PM 51.8 °F - 19.4 °F 28% 30.24 in 10.0 mi WSW 10.4 mph - N/A   Clear
6:35 PM 50.0 °F - 19.4 °F 30% 30.25 in 10.0 mi WSW 11.5 mph - N/A   Clear
6:55 PM 48.2 °F - 19.4 °F 32% 30.26 in 10.0 mi West 8.1 mph - N/A   Clear
7:35 PM 44.6 °F 41.4 °F 19.4 °F 37% 30.27 in 10.0 mi NW 5.8 mph - N/A   Clear
7:55 PM 42.8 °F 41.1 °F 19.4 °F 39% 30.28 in 10.0 mi WNW 3.5 mph - N/A   Clear
8:15 PM 44.6 °F 40.7 °F 19.4 °F 37% 30.28 in 10.0 mi West 6.9 mph - N/A   Clear
8:35 PM 44.6 °F 42.2 °F 19.4 °F 37% 30.29 in 10.0 mi NW 4.6 mph - N/A   Clear
8:55 PM 42.8 °F - 19.4 °F 39% 30.30 in 10.0 mi Calm Calm - N/A   Clear
9:35 PM 39.2 °F - 19.4 °F 45% 30.31 in 10.0 mi Calm Calm - N/A   Clear
9:55 PM 39.2 °F - 19.4 °F 45% 30.32 in 10.0 mi North - - N/A   Clear
10:15 PM 37.4 °F - 19.4 °F 48% 30.33 in 10.0 mi Calm Calm - N/A   Clear
10:35 PM 35.6 °F - 17.6 °F 48% 30.34 in 10.0 mi Calm Calm - N/A   Clear
10:55 PM 35.6 °F 32.8 °F 19.4 °F 52% 30.34 in 10.0 mi NNW 3.5 mph - N/A   Clear
11:15 PM 35.6 °F 31.7 °F 19.4 °F 52% 30.34 in 10.0 mi NNW 4.6 mph - N/A   Clear
11:35 PM 33.8 °F - 17.6 °F 52% 30.34 in 10.0 mi Calm Calm - N/A   Clear
11:55 PM 30.2 °F - 17.6 °F 60% 30.35 in 10.0 mi Calm Calm - N/A   Clear